FREGAT R/B, 41106

Orbit data source: Space-Track

FREGAT R/B, 41106 is space debris in GEO originally from a launch on Fri, 11 Dec 2015 UTC launched from the Tyuratam Missile And Space Complex (TTMTR). Debris objects in space refer to the collection of defunct objects orbiting the Earth. Examples of debris include non-operational satellites, rocket bodies, and fragments generated from explosions, collisions, or faulty payload assembly.

Loading next visibility...
Identifier
41106, 2015-074B
Orbit
GEO
Country
Flag of CISCIS
Related business
Manufacturer
Lavochkin
Mission
Spacecraft
Bus & Motor
FREGAT, Unknown motor
Mass
1,000 kg wet, 1,000 kg dry
Launch date (UTC)
2015-12-11 (11 years ago)
Launch vehicle
Unknown
Launch site
Tyuratam Missile And Space Complex (TTMTR)
Object type
Payload
Rocket body
Debris
Shape & HBR
Cyl, 1.9 m
Radar Cross Section
8.683 m², Medium (>0.1 m² and < 1m²)

Expand to show TLE details & history
Last TLE update: 2 days ago

TLE from 2 days ago
0 FREGAT R/B
1 41106U 15074B   26265.69665268  .00000018  00000-0  00000-0 0  9997
2 41106   8.3487  60.6691 0197892   1.7228 358.4744  1.02892164 40516
Epoch: 2026-09-22T16:43Z
TLE epoch observation values (Epoch: 2026-09-22T16:43:10.791Z)
Latitude
0.00001°
Longitude
168.43107°
Altitude
34,249.97 km
Speed
3.163 km/s
True Right ascension
04h 03m 08s
True Declination
0° 00' 00"
Sunlit
Object was in daylight at epoch
Visualization orbit readout
Latitude
Unknown
Longitude
Unknown
Altitude
Unknown
Speed
Unknown
Apparent Right ascension
Unknown
Apparent Declination
Unknown
Sunlit
N/A
Visualization observer readout
Local Sidereal Time
07:44:27
Azimuth
Unknown
Elevation
Unknown
Doppler factor
Unknown
Orbital elements
Apogee altitude
35,888.897 km
Perigee altitude
34,248.497 km
Semi-major axis
41,446.834 km
Eccentricity
0.01979
Inclination
8.3487°
RAAN
60.6691°
Arg. of periapsis
1.7228°
True anomaly
358.4125°
Mean anomaly
358.4744°
Eccentric anomaly
358.4436°
Mean motion
0.25722 °/min
Orbital period
1,399.58 mins
BSTAR
0
Loading maneuver chart data...
Computing Atmospheric mass density...
Loading historical data...
Loading historical data...
Loading historical data...
Loading historical data...
Loading historical data...
Loading historical data...
Loading historical data...

Documentation

Showing up to 5 results
|